Satellite: NO-44
Catalog number: 26931
Epoch time:      10216.68660248
Element set:    0526
Inclination:      067.0516 deg
RA of node:       079.0203 deg
Eccentricity:    0.0005130
Arg of perigee:   266.3408 deg
Mean anomaly:     093.7106 deg
Mean motion:   14.29605973 rev/day
Decay rate:        4.3e-07 rev/day^2
Epoch rev:           46168
Checksum:              291

Satellite: SO-50
Catalog number: 27607
Epoch time:      10216.53118009
Element set:     236
Inclination:      064.5561 deg
RA of node:       209.6751 deg
Eccentricity:    0.0037120
Arg of perigee:   054.5151 deg
Mean anomaly:     305.9418 deg
Mean motion:   14.71559863 rev/day
Decay rate:        8.4e-07 rev/day^2
Epoch rev:           40949
Checksum:              294

Satellite: CO-55
Catalog number: 27844
Epoch time:      10217.60508944
Element set:     905
Inclination:      098.7102 deg
RA of node:       225.8712 deg
Eccentricity:    0.0010747
Arg of perigee:   032.4754 deg
Mean anomaly:     327.7080 deg
Mean motion:   14.20721119 rev/day
Decay rate:        4.0e-07 rev/day^2
Epoch rev:           36810
Checksum:              282

Satellite: CO-57
Catalog number: 27848
Epoch time:      10217.57147341
Element set:     854
Inclination:      098.7148 deg
RA of node:       224.9406 deg
Eccentricity:    0.0010648
Arg of perigee:   036.6670 deg
Mean anomaly:     323.5238 deg
Mean motion:   14.20512728 rev/day
Decay rate:        2.2e-07 rev/day^2
Epoch rev:           36805
Checksum:              307

Satellite: AO-51
Catalog number: 28375
Epoch time:      10216.48706809
Element set:     740
Inclination:      098.0649 deg
RA of node:       207.2392 deg
Eccentricity:    0.0083952
Arg of perigee:   311.6525 deg
Mean anomaly:     047.7502 deg
Mean motion:   14.40692830 rev/day
Decay rate:        1.0e-07 rev/day^2
Epoch rev:           32046
Checksum:              294

Satellite: GENESAT1
Catalog number: 29655
Epoch time:      10216.61700559
Element set:     226
Inclination:      040.0059 deg
RA of node:       067.3006 deg
Eccentricity:    0.0005079
Arg of perigee:   297.8744 deg
Mean anomaly:     064.7087 deg
Mean motion:   16.44862838 rev/day
Decay rate:  1.0637092e-01 rev/day^2
Epoch rev:           20777
Checksum:              320

Satellite: CP3
Catalog number: 31129
Epoch time:      10216.58259394
Element set:    0644
Inclination:      097.9355 deg
RA of node:       253.5554 deg
Eccentricity:    0.0104617
Arg of perigee:   084.5710 deg
Mean anomaly:     276.7354 deg
Mean motion:   14.52285712 rev/day
Decay rate:       2.14e-06 rev/day^2
Epoch rev:           17488
Checksum:              314

Satellite: CO-65
Catalog number: 32785
Epoch time:      10216.18010072
Element set:    0750
Inclination:      097.8920 deg
RA of node:       280.4359 deg
Eccentricity:    0.0015917
Arg of perigee:   125.5392 deg
Mean anomaly:     234.7298 deg
Mean motion:   14.81688015 rev/day
Decay rate:       -8.9e-07 rev/day^2
Epoch rev:           12259
Checksum:              318

Satellite: KKS-1
Catalog number: 33493
Epoch time:      10217.70932382
Element set:     729
Inclination:      098.0903 deg
RA of node:       337.6372 deg
Eccentricity:    0.0019626
Arg of perigee:   345.0086 deg
Mean anomaly:     015.0548 deg
Mean motion:   14.81052037 rev/day
Decay rate:       4.51e-06 rev/day^2
Epoch rev:            8281
Checksum:              289

Satellite: SOHLA-1
Catalog number: 33496
Epoch time:      10216.70989730
Element set:    0171
Inclination:      098.0609 deg
RA of node:       325.1643 deg
Eccentricity:    0.0007598
Arg of perigee:   053.6939 deg
Mean anomaly:     306.4965 deg
Mean motion:   14.69506295 rev/day
Decay rate:        7.1e-07 rev/day^2
Epoch rev:           08200
Checksum:              317

Satellite: TISAT-1
Catalog number: 36799
Epoch time:      10216.72771421
Element set:    0044
Inclination:      098.1430 deg
RA of node:       276.2140 deg
Eccentricity:    0.0014657
Arg of perigee:   215.5100 deg
Mean anomaly:     144.5183 deg
Mean motion:   14.80132133 rev/day
Decay rate:       2.58e-06 rev/day^2
Epoch rev:           00349
Checksum:              261

Satellite: STUDSAT
Catalog number: 36801
Epoch time:      10216.73697962
Element set:    0059
Inclination:      098.1461 deg
RA of node:       276.2007 deg
Eccentricity:    0.0013194
Arg of perigee:   202.8181 deg
Mean anomaly:     157.2444 deg
Mean motion:   14.79564456 rev/day
Decay rate:       8.84e-06 rev/day^2
Epoch rev:           00349
Checksum:              307

/EX
SB KEPS @ AMSAT  $ORB10217.W
Orbital Elements  10217.WEATHER

HR AMSAT ORBITAL ELEMENTS FOR WEATHER SATELLITES
FROM WA5QGD FORT WORTH,TX August 5, 2010
Send Subscribe/unsubscribe to KEPS at http://www.amsat.org/mailman/listinfo/kep
BID: ORB10217.W
TO ALL RADIO AMATEURS BT

Satellite: NOAA-10
Catalog number: 16969
Epoch time:      10216.72972452
Element set:    0158
Inclination:      098.6543 deg
RA of node:       245.2363 deg
Eccentricity:    0.0013181
Arg of perigee:   070.6544 deg
Mean anomaly:     289.6043 deg
Mean motion:   14.27422570 rev/day
Decay rate:       -3.3e-07 rev/day^2
Epoch rev:           24250
Checksum:              291

